| time (UTC) | temp C | wind direction | speed KPH | gust KPH | rain 1hr cm | rain 24hr cm | rain mn cm | humidity % | barometer mb |
| 20260510190925 | 21 | 244 | 4.8 | 4.8 | 0.00 | 0.00 | 0.00 | 35 | 1021.5 |
| 20260510190422 | 20 | 235 | 3.2 | 3.2 | 0.00 | 0.00 | 0.00 | 37 | 1021.0 |
| 20260510185918 | 21 | 252 | 3.2 | 3.2 | 0.00 | 0.00 | 0.00 | 37 | 1021.1 |
| 20260510185416 | 20 | 133 | 1.6 | 1.6 | 0.00 | 0.00 | 0.00 | 36 | 1021.1 |
| 20260510184913 | 20 | 6 | 1.6 | 3.2 | 0.00 | 0.00 | 0.00 | 38 | 1021.4 |
| 20260510184410 | 20 | 72 | 1.6 | 3.2 | 0.00 | 0.00 | 0.00 | 41 | 1021.1 |
| 20260510183909 | 20 | 170 | 3.2 | 4.8 | 0.00 | 0.00 | 0.00 | 42 | 1021.0 |
| 20260510183406 | 20 | 178 | 3.2 | 4.8 | 0.00 | 0.00 | 0.00 | 38 | 1021.1 |
| 20260510182901 | 20 | 290 | 1.6 | 1.6 | 0.00 | 0.00 | 0.00 | 42 | 1020.9 |
| 20260510182357 | 20 | 72 | 1.6 | 1.6 | 0.00 | 0.00 | 0.00 | 44 | 1020.9 |
| 20260510181853 | 20 | 202 | 1.6 | 3.2 | 0.00 | 0.00 | 0.00 | 39 | 1021.0 |
| 20260510181351 | 21 | 90 | 1.6 | 1.6 | 0.00 | 0.00 | 0.00 | 37 | 1020.9 |
| 20260510180847 | 21 | 237 | 4.8 | 4.8 | 0.00 | 0.00 | 0.00 | 40 | 1020.9 |
| 20260510180344 | 21 | 32 | 1.6 | 1.6 | 0.00 | 0.00 | 0.00 | 43 | 1020.7 |
| 20260510175841 | 20 | 302 | 1.6 | 3.2 | 0.00 | 0.00 | 0.00 | 42 | 1020.9 |
| 20260510175337 | 21 | 92 | 1.6 | 3.2 | 0.00 | 0.00 | 0.00 | 41 | 1020.9 |
| 20260510174833 | 20 | 347 | 4.8 | 8.0 | 0.00 | 0.00 | 0.00 | 41 | 1020.3 |
| 20260510174331 | 20 | 226 | 1.6 | 1.6 | 0.00 | 0.00 | 0.00 | 37 | 1020.7 |
| 20260510173827 | 20 | 355 | 3.2 | 4.8 | 0.00 | 0.00 | 0.00 | 42 | 1020.7 |
| 20260510173323 | 20 | 36 | 3.2 | 4.8 | 0.00 | 0.00 | 0.00 | 46 | 1020.6 |
| 20260510172819 | 20 | 327 | 1.6 | 3.2 | 0.00 | 0.00 | 0.00 | 41 | 1020.8 |
| 20260510172315 | 20 | 73 | 3.2 | 4.8 | 0.00 | 0.00 | 0.00 | 41 | 1020.7 |
| 20260510171812 | 20 | 111 | 3.2 | 4.8 | 0.00 | 0.00 | 0.00 | 44 | 1020.5 |
| 20260510171309 | 20 | 327 | 0.0 | 1.6 | 0.00 | 0.00 | 0.00 | 46 | 1020.6 |
| 20260510170806 | 20 | 112 | 4.8 | 8.0 | 0.00 | 0.00 | 0.00 | 42 | 1020.1 |
| 20260510170302 | 19 | 125 | 6.4 | 8.0 | 0.00 | 0.00 | 0.00 | 41 | 1020.6 |
| 20260510165752 | 20 | 347 | 1.6 | 3.2 | 0.00 | 0.00 | 0.00 | 44 | 1020.6 |
| 20260510165249 | 20 | 180 | 3.2 | 3.2 | 0.00 | 0.00 | 0.00 | 40 | 1020.6 |
| 20260510164746 | 20 | 96 | 3.2 | 3.2 | 0.00 | 0.00 | 0.00 | 44 | 1020.2 |
| 20260510164243 | 20 | 15 | 1.6 | 3.2 | 0.00 | 0.00 | 0.00 | 43 | 1020.4 |
| 20260510163738 | 19 | 358 | 1.6 | 1.6 | 0.00 | 0.00 | 0.00 | 43 | 1020.4 |
| 20260510163234 | 20 | 106 | 6.4 | 9.7 | 0.00 | 0.00 | 0.00 | 44 | 1020.3 |
| 20260510162733 | 19 | 96 | 8.0 | 11.3 | 0.00 | 0.00 | 0.00 | 43 | 1020.4 |
| 20260510162232 | 20 | 101 | 3.2 | 4.8 | 0.00 | 0.00 | 0.00 | 43 | 1020.6 |
| 20260510161727 | 20 | 333 | 3.2 | 3.2 | 0.00 | 0.00 | 0.00 | 43 | 1020.7 |
| 20260510161223 | 19 | 131 | 3.2 | 4.8 | 0.00 | 0.00 | 0.00 | 45 | 1020.7 |
| 20260510160720 | 19 | 136 | 4.8 | 8.0 | 0.00 | 0.00 | 0.00 | 44 | 1020.5 |
| 20260510160215 | 18 | 124 | 3.2 | 3.2 | 0.00 | 0.00 | 0.00 | 46 | 1020.4 |
| 20260510155712 | 19 | 180 | 1.6 | 1.6 | 0.00 | 0.00 | 0.00 | 46 | 1020.3 |
| 20260510155208 | 18 | 99 | 1.6 | 1.6 | 0.00 | 0.00 | 0.00 | 46 | 1020.2 |
| 20260510154703 | 18 | 205 | 4.8 | 11.3 | 0.00 | 0.00 | 0.00 | 44 | 1020.1 |
| 20260510154159 | 18 | 29 | 3.2 | 4.8 | 0.00 | 0.00 | 0.00 | 47 | 1020.4 |
| 20260510153654 | 18 | 22 | 0.0 | 0.0 | 0.00 | 0.00 | 0.00 | 50 | 1020.2 |
| 20260510153151 | 18 | 72 | 0.0 | 1.6 | 0.00 | 0.00 | 0.00 | 51 | 1020.3 |
| 20260510152648 | 18 | 39 | 0.0 | 1.6 | 0.00 | 0.00 | 0.00 | 49 | 1020.4 |
| 20260510152144 | 18 | 115 | 6.4 | 9.7 | 0.00 | 0.00 | 0.00 | 47 | 1020.4 |
| 20260510151640 | 18 | 335 | 1.6 | 1.6 | 0.00 | 0.00 | 0.00 | 51 | 1020.6 |
| 20260510151139 | 18 | 302 | 3.2 | 8.0 | 0.00 | 0.00 | 0.00 | 47 | 1020.7 |
| 20260510150634 | 18 | 146 | 4.8 | 4.8 | 0.00 | 0.00 | 0.00 | 48 | 1020.6 |
| 20260510150130 | 17 | 59 | 0.0 | 1.6 | 0.00 | 0.00 | 0.00 | 54 | 1020.5 |
| 20260510145626 | 17 | 81 | 1.6 | 3.2 | 0.00 | 0.00 | 0.00 | 51 | 1020.8 |
| 20260510145123 | 17 | 20 | 0.0 | 1.6 | 0.00 | 0.00 | 0.00 | 51 | 1020.8 |
| 20260510144619 | 17 | 95 | 1.6 | 3.2 | 0.00 | 0.00 | 0.00 | 53 | 1020.4 |
| 20260510144115 | 17 | 199 | 4.8 | 8.0 | 0.00 | 0.00 | 0.00 | 48 | 1020.4 |
| 20260510143611 | 17 | 54 | 1.6 | 1.6 | 0.00 | 0.00 | 0.00 | 47 | 1020.6 |
| 20260510143108 | 18 | 84 | 1.6 | 1.6 | 0.00 | 0.00 | 0.00 | 51 | 1020.4 |
| 20260510142604 | 17 | 47 | 0.0 | 0.0 | 0.00 | 0.00 | 0.00 | 53 | 1020.4 |
| 20260510142101 | 18 | 64 | 4.8 | 8.0 | 0.00 | 0.00 | 0.00 | 50 | 1020.2 |
| 20260510141558 | 17 | 28 | 1.6 | 1.6 | 0.00 | 0.00 | 0.00 | 52 | 1020.1 |
| 20260510141056 | 17 | 1 | 0.0 | 1.6 | 0.00 | 0.00 | 0.00 | 58 | 1019.9 |
| 20260510140551 | 17 | 93 | 1.6 | 3.2 | 0.00 | 0.00 | 0.00 | 56 | 1019.7 |
| 20260510140051 | 17 | 356 | 1.6 | 1.6 | 0.00 | 0.00 | 0.00 | 57 | 1019.9 |
| 20260510135547 | 17 | 148 | 6.4 | 8.0 | 0.00 | 0.00 | 0.00 | 57 | 1019.8 |
| 20260510135043 | 16 | 17 | 0.0 | 1.6 | 0.00 | 0.00 | 0.00 | 59 | 1019.9 |
| 20260510134540 | 16 | 55 | 1.6 | 3.2 | 0.00 | 0.00 | 0.00 | 59 | 1019.7 |
| 20260510134037 | 15 | 242 | 0.0 | 1.6 | 0.00 | 0.00 | 0.00 | 63 | 1019.5 |
| 20260510133533 | 15 | 351 | 1.6 | 1.6 | 0.00 | 0.00 | 0.00 | 66 | 1019.3 |
| 20260510133029 | 15 | 197 | 0.0 | 1.6 | 0.00 | 0.00 | 0.00 | 64 | 1019.1 |
| 20260510132526 | 14 | 22 | 0.0 | 0.0 | 0.00 | 0.00 | 0.00 | 65 | 1019.2 |
| 20260510132023 | 14 | 69 | 1.6 | 3.2 | 0.00 | 0.00 | 0.00 | 64 | 1019.1 |
| 20260510131521 | 14 | 33 | 1.6 | 1.6 | 0.00 | 0.00 | 0.00 | 64 | 1018.7 |
| 20260510131018 | 14 | 40 | 0.0 | 1.6 | 0.00 | 0.00 | 0.00 | 68 | 1018.9 |
| 20260510130514 | 14 | 98 | 3.2 | 3.2 | 0.00 | 0.00 | 0.00 | 65 | 1018.6 |
| 20260510130012 | 14 | 125 | 3.2 | 3.2 | 0.00 | 0.00 | 0.00 | 64 | 1018.8 |
| 20260510125508 | 14 | 280 | 1.6 | 3.2 | 0.00 | 0.00 | 0.00 | 71 | 1018.7 |
| 20260510125004 | 14 | 58 | 1.6 | 1.6 | 0.00 | 0.00 | 0.00 | 69 | 1018.7 |
| 20260510124501 | 14 | 22 | 0.0 | 0.0 | 0.00 | 0.00 | 0.00 | 70 | 1018.5 |
| 20260510123958 | 13 | 163 | 6.4 | 11.3 | 0.00 | 0.00 | 0.00 | 66 | 1018.6 |
| 20260510123453 | 13 | 3 | 0.0 | 0.0 | 0.00 | 0.00 | 0.00 | 70 | 1018.5 |
| 20260510122950 | 14 | 24 | 3.2 | 4.8 | 0.00 | 0.00 | 0.00 | 72 | 1018.4 |
| 20260510122445 | 14 | 85 | 1.6 | 3.2 | 0.00 | 0.00 | 0.00 | 71 | 1018.0 |
| 20260510121941 | 14 | 31 | 0.0 | 0.0 | 0.00 | 0.00 | 0.00 | 75 | 1018.0 |
| 20260510121439 | 14 | 81 | 3.2 | 3.2 | 0.00 | 0.00 | 0.00 | 74 | 1017.6 |
| 20260510120936 | 13 | 348 | 1.6 | 1.6 | 0.00 | 0.00 | 0.00 | 75 | 1017.9 |
| 20260510120433 | 13 | 174 | 1.6 | 1.6 | 0.00 | 0.00 | 0.00 | 79 | 1017.9 |
| 20260510115929 | 13 | 47 | 4.8 | 8.0 | 0.00 | 0.00 | 0.00 | 78 | 1017.9 |
| 20260510115426 | 13 | 45 | 1.6 | 1.6 | 0.00 | 0.00 | 0.00 | 79 | 1017.8 |
| 20260510114922 | 13 | 114 | 0.0 | 1.6 | 0.00 | 0.00 | 0.00 | 82 | 1017.8 |
| 20260510114419 | 13 | 30 | 0.0 | 0.0 | 0.00 | 0.00 | 0.00 | 83 | 1017.6 |
| 20260510113914 | 13 | 256 | 1.6 | 1.6 | 0.00 | 0.00 | 0.00 | 81 | 1017.6 |
| 20260510113410 | 13 | 325 | 1.6 | 1.6 | 0.00 | 0.00 | 0.00 | 83 | 1017.3 |
| 20260510112908 | 13 | 17 | 0.0 | 0.0 | 0.00 | 0.00 | 0.00 | 85 | 1017.6 |
| 20260510112405 | 13 | 10 | 0.0 | 0.0 | 0.00 | 0.00 | 0.00 | 85 | 1017.4 |
| 20260510111901 | 13 | 21 | 0.0 | 0.0 | 0.00 | 0.00 | 0.00 | 84 | 1017.5 |
| 20260510111357 | 13 | 7 | 0.0 | 0.0 | 0.00 | 0.00 | 0.00 | 86 | 1017.5 |
| 20260510110852 | 13 | 87 | 1.6 | 3.2 | 0.00 | 0.00 | 0.00 | 88 | 1017.5 |
| 20260510110349 | 13 | 355 | 0.0 | 0.0 | 0.00 | 0.00 | 0.00 | 90 | 1017.3 |
| 20260510105845 | 14 | 342 | 0.0 | 0.0 | 0.00 | 0.00 | 0.00 | 89 | 1017.3 |
| 20260510105345 | 14 | 347 | 0.0 | 0.0 | 0.00 | 0.00 | 0.00 | 90 | 1017.0 |
| 20260510104841 | 14 | 10 | 0.0 | 0.0 | 0.00 | 0.00 | 0.00 | 89 | 1016.9 |
| 20260510104338 | 15 | 5 | 0.0 | 0.0 | 0.00 | 0.00 | 0.00 | 89 | 1016.9 |
| 20260510103835 | 15 | 32 | 0.0 | 0.0 | 0.00 | 0.00 | 0.00 | 87 | 1016.7 |
| 20260510103332 | 15 | 45 | 0.0 | 1.6 | 0.00 | 0.00 | 0.00 | 87 | 1016.8 |
| 20260510102827 | 15 | 0 | 0.0 | 0.0 | 0.00 | 0.00 | 0.00 | 88 | 1016.9 |
| 20260510102323 | 14 | 0 | 0.0 | 0.0 | 0.00 | 0.00 | 0.00 | 88 | 1016.8 |
| 20260510101821 | 14 | 1 | 0.0 | 0.0 | 0.00 | 0.00 | 0.00 | 88 | 1016.6 |
| 20260510101319 | 14 | 1 | 0.0 | 0.0 | 0.00 | 0.00 | 0.00 | 88 | 1016.6 |
| 20260510100814 | 14 | 3 | 0.0 | 1.6 | 0.00 | 0.00 | 0.00 | 88 | 1016.4 |
| 20260510100312 | 14 | 5 | 0.0 | 0.0 | 0.00 | 0.00 | 0.00 | 88 | 1016.3 |
| 20260510095808 | 14 | 5 | 0.0 | 0.0 | 0.00 | 0.00 | 0.00 | 88 | 1016.2 |
| 20260510095305 | 14 | 12 | 0.0 | 0.0 | 0.00 | 0.00 | 0.00 | 88 | 1015.8 |
| 20260510094757 | 14 | 24 | 0.0 | 0.0 | 0.00 | 0.00 | 0.00 | 88 | 1015.9 |
| 20260510094252 | 14 | 30 | 0.0 | 0.0 | 0.00 | 0.00 | 0.00 | 88 | 1015.7 |
| 20260510093748 | 15 | 35 | 0.0 | 0.0 | 0.00 | 0.00 | 0.00 | 87 | 1015.6 |
| 20260510093246 | 15 | 358 | 0.0 | 0.0 | 0.00 | 0.00 | 0.00 | 88 | 1015.8 |
| 20260510092742 | 15 | 10 | 0.0 | 0.0 | 0.00 | 0.00 | 0.00 | 87 | 1015.8 |
| 20260510092237 | 15 | 40 | 0.0 | 0.0 | 0.00 | 0.00 | 0.00 | 86 | 1015.5 |
| 20260510091733 | 15 | 45 | 0.0 | 0.0 | 0.00 | 0.00 | 0.00 | 86 | 1015.7 |
| 20260510091231 | 15 | 62 | 1.6 | 1.6 | 0.00 | 0.00 | 0.00 | 86 | 1015.5 |
| 20260510090726 | 15 | 43 | 0.0 | 1.6 | 0.00 | 0.00 | 0.00 | 86 | 1015.6 |
| 20260510090224 | 15 | 345 | 0.0 | 0.0 | 0.00 | 0.00 | 0.00 | 87 | 1015.4 |
| 20260510085719 | 15 | 345 | 0.0 | 0.0 | 0.00 | 0.00 | 0.00 | 86 | 1015.4 |
| 20260510085214 | 15 | 36 | 0.0 | 0.0 | 0.00 | 0.00 | 0.00 | 86 | 1015.3 |
| 20260510084710 | 15 | 42 | 0.0 | 1.6 | 0.00 | 0.00 | 0.00 | 85 | 1015.1 |
| 20260510084208 | 15 | 94 | 3.2 | 3.2 | 0.00 | 0.00 | 0.00 | 85 | 1014.8 |
| 20260510083704 | 15 | 41 | 0.0 | 1.6 | 0.00 | 0.00 | 0.00 | 85 | 1015.0 |
| 20260510083201 | 15 | 13 | 0.0 | 1.6 | 0.00 | 0.00 | 0.00 | 85 | 1015.1 |
| 20260510082656 | 15 | 331 | 0.0 | 0.0 | 0.00 | 0.00 | 0.00 | 85 | 1015.1 |
| 20260510082153 | 15 | 14 | 0.0 | 0.0 | 0.00 | 0.00 | 0.00 | 85 | 1015.2 |
| 20260510081647 | 15 | 29 | 0.0 | 0.0 | 0.00 | 0.00 | 0.00 | 85 | 1015.3 |
| 20260510081143 | 15 | 38 | 0.0 | 0.0 | 0.00 | 0.00 | 0.00 | 86 | 1015.1 |
| 20260510080643 | 15 | 37 | 0.0 | 0.0 | 0.00 | 0.00 | 0.00 | 86 | 1015.2 |
| 20260510080140 | 15 | 52 | 0.0 | 1.6 | 0.00 | 0.00 | 0.00 | 85 | 1014.8 |
| 20260510075637 | 15 | 39 | 0.0 | 0.0 | 0.00 | 0.00 | 0.00 | 85 | 1014.6 |
| 20260510075134 | 15 | 40 | 0.0 | 0.0 | 0.00 | 0.00 | 0.00 | 85 | 1014.4 |
| 20260510074631 | 15 | 39 | 0.0 | 0.0 | 0.00 | 0.00 | 0.00 | 85 | 1014.7 |
| 20260510074127 | 15 | 40 | 0.0 | 0.0 | 0.00 | 0.00 | 0.00 | 85 | 1014.6 |
| 20260510073623 | 15 | 41 | 0.0 | 0.0 | 0.00 | 0.00 | 0.00 | 85 | 1014.5 |
| 20260510073120 | 15 | 43 | 0.0 | 0.0 | 0.00 | 0.00 | 0.00 | 85 | 1014.3 |
| 20260510072616 | 15 | 43 | 0.0 | 0.0 | 0.00 | 0.00 | 0.00 | 83 | 1014.4 |
| 20260510072113 | 15 | 46 | 0.0 | 0.0 | 0.00 | 0.00 | 0.00 | 82 | 1014.5 |
| 20260510071608 | 15 | 47 | 0.0 | 0.0 | 0.00 | 0.00 | 0.00 | 82 | 1014.4 |
| 20260510071106 | 16 | 57 | 0.0 | 0.0 | 0.00 | 0.00 | 0.00 | 81 | 1014.2 |
| 20260510070558 | 16 | 43 | 0.0 | 0.0 | 0.00 | 0.00 | 0.00 | 81 | 1014.3 |
| 20260510070055 | 16 | 48 | 1.6 | 1.6 | 0.00 | 0.00 | 0.00 | 80 | 1014.4 |
| 20260510065551 | 16 | 54 | 0.0 | 0.0 | 0.00 | 0.00 | 0.00 | 80 | 1014.2 |
| 20260510065047 | 16 | 65 | 0.0 | 1.6 | 0.00 | 0.00 | 0.00 | 79 | 1014.2 |
| 20260510064544 | 16 | 23 | 0.0 | 1.6 | 0.00 | 0.00 | 0.00 | 79 | 1014.2 |
| 20260510064040 | 16 | 51 | 1.6 | 1.6 | 0.00 | 0.00 | 0.00 | 78 | 1014.1 |
| 20260510063537 | 16 | 30 | 0.0 | 1.6 | 0.00 | 0.00 | 0.00 | 78 | 1014.3 |
| 20260510063035 | 16 | 4 | 0.0 | 0.0 | 0.00 | 0.00 | 0.00 | 78 | 1014.4 |
| 20260510062530 | 16 | 4 | 0.0 | 0.0 | 0.00 | 0.00 | 0.00 | 77 | 1014.2 |
| 20260510062026 | 16 | 342 | 0.0 | 0.0 | 0.00 | 0.00 | 0.00 | 77 | 1014.3 |
| 20260510061522 | 17 | 341 | 0.0 | 0.0 | 0.00 | 0.00 | 0.00 | 73 | 1014.3 |
| 20260510061019 | 17 | 341 | 0.0 | 0.0 | 0.00 | 0.00 | 0.00 | 71 | 1014.3 |
| 20260510060516 | 17 | 341 | 0.0 | 0.0 | 0.00 | 0.00 | 0.00 | 69 | 1014.1 |
| 20260510060012 | 17 | 341 | 0.0 | 0.0 | 0.00 | 0.00 | 0.00 | 68 | 1013.9 |
| 20260510055508 | 17 | 341 | 0.0 | 0.0 | 0.00 | 0.00 | 0.00 | 68 | 1013.9 |
| 20260510055006 | 17 | 342 | 0.0 | 0.0 | 0.00 | 0.00 | 0.00 | 69 | 1014.1 |
| 20260510054502 | 17 | 342 | 0.0 | 0.0 | 0.00 | 0.00 | 0.00 | 72 | 1014.0 |
| 20260510053957 | 17 | 342 | 0.0 | 0.0 | 0.00 | 0.00 | 0.00 | 73 | 1013.8 |
| 20260510053452 | 17 | 341 | 0.0 | 0.0 | 0.00 | 0.00 | 0.00 | 69 | 1013.8 |
| 20260510052948 | 17 | 341 | 0.0 | 0.0 | 0.00 | 0.00 | 0.00 | 69 | 1014.2 |
| 20260510052444 | 17 | 341 | 0.0 | 0.0 | 0.00 | 0.00 | 0.00 | 69 | 1014.1 |
| 20260510051941 | 18 | 341 | 0.0 | 0.0 | 0.00 | 0.00 | 0.00 | 68 | 1014.1 |
| 20260510051437 | 18 | 341 | 0.0 | 0.0 | 0.00 | 0.00 | 0.00 | 66 | 1014.0 |
| 20260510050933 | 18 | 341 | 0.0 | 0.0 | 0.00 | 0.00 | 0.00 | 66 | 1013.9 |
| 20260510050430 | 18 | 341 | 0.0 | 0.0 | 0.00 | 0.00 | 0.00 | 65 | 1013.7 |
| 20260510045928 | 18 | 341 | 0.0 | 0.0 | 0.00 | 0.03 | 0.03 | 64 | 1013.6 |
| 20260510045425 | 18 | 341 | 0.0 | 0.0 | 0.00 | 0.03 | 0.03 | 64 | 1013.6 |
| 20260510044921 | 18 | 341 | 0.0 | 0.0 | 0.00 | 0.03 | 0.03 | 65 | 1013.5 |
| 20260510044418 | 18 | 341 | 0.0 | 0.0 | 0.00 | 0.03 | 0.03 | 65 | 1013.5 |
| 20260510043915 | 18 | 341 | 0.0 | 0.0 | 0.00 | 0.03 | 0.03 | 64 | 1013.5 |
| 20260510043411 | 17 | 341 | 0.0 | 0.0 | 0.00 | 0.03 | 0.03 | 65 | 1013.4 |
| 20260510042909 | 18 | 341 | 0.0 | 0.0 | 0.00 | 0.03 | 0.03 | 65 | 1013.4 |
| 20260510042405 | 18 | 341 | 0.0 | 0.0 | 0.00 | 0.03 | 0.03 | 66 | 1013.1 |
| 20260510041901 | 18 | 342 | 0.0 | 0.0 | 0.00 | 0.03 | 0.03 | 67 | 1013.2 |
| 20260510041358 | 18 | 342 | 0.0 | 0.0 | 0.00 | 0.03 | 0.03 | 65 | 1013.2 |
| 20260510040855 | 18 | 342 | 0.0 | 0.0 | 0.00 | 0.03 | 0.03 | 65 | 1013.4 |
| 20260510040352 | 18 | 342 | 0.0 | 0.0 | 0.00 | 0.03 | 0.03 | 66 | 1013.0 |
| 20260510035848 | 18 | 342 | 0.0 | 0.0 | 0.00 | 0.03 | 0.03 | 65 | 1013.1 |
| 20260510035344 | 18 | 342 | 0.0 | 0.0 | 0.00 | 0.03 | 0.03 | 65 | 1013.1 |
| 20260510034839 | 18 | 342 | 0.0 | 0.0 | 0.00 | 0.03 | 0.03 | 65 | 1013.0 |
| 20260510034338 | 18 | 342 | 0.0 | 0.0 | 0.00 | 0.03 | 0.03 | 66 | 1013.1 |
| 20260510033834 | 18 | 328 | 0.0 | 0.0 | 0.00 | 0.03 | 0.03 | 65 | 1013.1 |
| 20260510033330 | 18 | 52 | 0.0 | 0.0 | 0.00 | 0.03 | 0.03 | 70 | 1013.1 |
| 20260510032827 | 18 | 52 | 0.0 | 0.0 | 0.00 | 0.03 | 0.03 | 70 | 1012.9 |
| 20260510032324 | 17 | 12 | 0.0 | 0.0 | 0.00 | 0.03 | 0.03 | 76 | 1013.2 |
| 20260510031820 | 17 | 331 | 0.0 | 0.0 | 0.00 | 0.03 | 0.03 | 74 | 1012.9 |
| 20260510031315 | 17 | 320 | 6.4 | 9.7 | 0.00 | 0.03 | 0.03 | 74 | 1012.8 |
| 20260510030809 | 20 | 351 | 3.2 | 3.2 | 0.00 | 0.03 | 0.03 | 58 | 1012.4 |
| 20260510030306 | 19 | 335 | 1.6 | 1.6 | 0.00 | 0.03 | 0.03 | 60 | 1011.7 |
| 20260510025804 | 19 | 337 | 0.0 | 0.0 | 0.00 | 0.03 | 0.03 | 63 | 1011.7 |
| 20260510025301 | 19 | 333 | 0.0 | 0.0 | 0.00 | 0.03 | 0.03 | 61 | 1012.0 |
| 20260510024757 | 20 | 319 | 0.0 | 1.6 | 0.00 | 0.03 | 0.03 | 61 | 1011.7 |
| 20260510024254 | 20 | 333 | 0.0 | 0.0 | 0.00 | 0.03 | 0.03 | 59 | 1011.4 |
| 20260510023749 | 20 | 338 | 0.0 | 0.0 | 0.00 | 0.03 | 0.03 | 60 | 1011.3 |
| 20260510023242 | 20 | 338 | 0.0 | 0.0 | 0.00 | 0.03 | 0.03 | 57 | 1011.5 |
| 20260510022737 | 21 | 325 | 1.6 | 1.6 | 0.00 | 0.03 | 0.03 | 56 | 1011.3 |
| 20260510022232 | 21 | 283 | 1.6 | 3.2 | 0.00 | 0.03 | 0.03 | 55 | 1011.3 |
| 20260510021726 | 21 | 330 | 1.6 | 1.6 | 0.00 | 0.03 | 0.03 | 54 | 1011.0 |
| 20260510021225 | 21 | 325 | 0.0 | 0.0 | 0.00 | 0.03 | 0.03 | 54 | 1010.9 |
| 20260510020724 | 21 | 346 | 0.0 | 0.0 | 0.00 | 0.03 | 0.03 | 53 | 1010.8 |
| 20260510020220 | 21 | 12 | 0.0 | 1.6 | 0.00 | 0.03 | 0.03 | 54 | 1010.7 |
| 20260510015716 | 21 | 17 | 1.6 | 1.6 | 0.00 | 0.03 | 0.03 | 51 | 1010.8 |
| 20260510015212 | 21 | 332 | 0.0 | 0.0 | 0.00 | 0.03 | 0.03 | 53 | 1010.6 |
| 20260510014708 | 21 | 341 | 0.0 | 1.6 | 0.00 | 0.03 | 0.03 | 53 | 1010.5 |
| 20260510014205 | 21 | 341 | 0.0 | 0.0 | 0.00 | 0.03 | 0.03 | 53 | 1010.4 |
| 20260510013700 | 21 | 339 | 0.0 | 0.0 | 0.00 | 0.03 | 0.03 | 53 | 1010.3 |
| 20260510013156 | 21 | 337 | 0.0 | 0.0 | 0.00 | 0.03 | 0.03 | 52 | 1010.5 |
| 20260510012656 | 21 | 333 | 0.0 | 1.6 | 0.00 | 0.03 | 0.03 | 53 | 1010.3 |
| 20260510012151 | 21 | 332 | 0.0 | 0.0 | 0.00 | 0.03 | 0.03 | 52 | 1010.4 |
| 20260510011647 | 21 | 314 | 0.0 | 0.0 | 0.00 | 0.03 | 0.03 | 51 | 1010.1 |
| 20260510011143 | 22 | 333 | 0.0 | 0.0 | 0.00 | 0.03 | 0.03 | 51 | 1010.1 |
| 20260510010638 | 21 | 341 | 0.0 | 0.0 | 0.00 | 0.03 | 0.03 | 51 | 1010.1 |
| 20260510010136 | 22 | 314 | 0.0 | 1.6 | 0.00 | 0.03 | 0.03 | 54 | 1010.1 |
| 20260510005632 | 22 | 321 | 1.6 | 3.2 | 0.00 | 0.03 | 0.03 | 51 | 1009.9 |
| 20260510005129 | 22 | 343 | 0.0 | 1.6 | 0.00 | 0.03 | 0.03 | 50 | 1010.2 |
| 20260510004627 | 21 | 327 | 1.6 | 1.6 | 0.00 | 0.03 | 0.03 | 50 | 1010.0 |
| 20260510004125 | 22 | 356 | 0.0 | 0.0 | 0.00 | 0.03 | 0.03 | 51 | 1010.0 |
| 20260510003622 | 22 | 356 | 0.0 | 0.0 | 0.00 | 0.03 | 0.03 | 50 | 1009.9 |
| 20260510003118 | 22 | 356 | 0.0 | 0.0 | 0.00 | 0.03 | 0.03 | 50 | 1009.7 |
| 20260510002612 | 22 | 336 | 0.0 | 0.0 | 0.00 | 0.03 | 0.03 | 50 | 1010.0 |
| 20260510002109 | 23 | 332 | 0.0 | 0.0 | 0.00 | 0.03 | 0.03 | 49 | 1009.8 |
| 20260510001607 | 23 | 332 | 0.0 | 0.0 | 0.00 | 0.03 | 0.03 | 49 | 1009.9 |
| 20260510001106 | 23 | 326 | 0.0 | 0.0 | 0.00 | 0.03 | 0.03 | 48 | 1009.9 |
| 20260510000605 | 23 | 326 | 0.0 | 1.6 | 0.00 | 0.03 | 0.03 | 46 | 1009.9 |
| 20260509235559 | 24 | 319 | 0.0 | 0.0 | 0.00 | 0.03 | 0.03 | 49 | 1010.0 |
| 20260509235056 | 25 | 314 | 0.0 | 0.0 | 0.00 | 0.03 | 0.03 | 52 | 1009.8 |
| 20260509234552 | 24 | 314 | 0.0 | 0.0 | 0.00 | 0.03 | 0.03 | 50 | 1010.1 |
| 20260509234050 | 24 | 312 | 0.0 | 0.0 | 0.00 | 0.03 | 0.03 | 49 | 1009.7 |
| 20260509233547 | 24 | 312 | 0.0 | 0.0 | 0.00 | 0.03 | 0.03 | 50 | 1009.8 |
| 20260509233044 | 23 | 314 | 0.0 | 0.0 | 0.00 | 0.03 | 0.03 | 51 | 1009.7 |
| 20260509232541 | 24 | 313 | 0.0 | 0.0 | 0.00 | 0.03 | 0.03 | 51 | 1009.7 |
| 20260509232038 | 25 | 313 | 0.0 | 0.0 | 0.00 | 0.03 | 0.03 | 50 | 1009.7 |
| 20260509231534 | 25 | 312 | 0.0 | 0.0 | 0.00 | 0.03 | 0.03 | 49 | 1009.6 |
| 20260509231032 | 26 | 312 | 0.0 | 1.6 | 0.00 | 0.03 | 0.03 | 48 | 1009.7 |
| 20260509230528 | 26 | 326 | 0.0 | 1.6 | 0.00 | 0.03 | 0.03 | 49 | 1009.6 |
| 20260509230026 | 27 | 189 | 1.6 | 3.2 | 0.00 | 0.03 | 0.03 | 40 | 1009.9 |
| 20260509225521 | 27 | 311 | 1.6 | 1.6 | 0.00 | 0.03 | 0.03 | 42 | 1009.8 |
| 20260509225016 | 27 | 313 | 0.0 | 0.0 | 0.00 | 0.03 | 0.03 | 39 | 1009.7 |
| 20260509224512 | 26 | 329 | 0.0 | 0.0 | 0.00 | 0.03 | 0.03 | 45 | 1009.5 |
| 20260509224009 | 26 | 294 | 1.6 | 3.2 | 0.00 | 0.03 | 0.03 | 40 | 1009.6 |
| 20260509223506 | 27 | 327 | 3.2 | 3.2 | 0.00 | 0.03 | 0.03 | 36 | 1009.7 |
| 20260509223005 | 28 | 272 | 0.0 | 0.0 | 0.00 | 0.03 | 0.03 | 42 | 1009.7 |
| 20260509222459 | 28 | 25 | 0.0 | 0.0 | 0.00 | 0.03 | 0.03 | 41 | 1009.6 |
| 20260509221955 | 28 | 257 | 1.6 | 3.2 | 0.00 | 0.03 | 0.03 | 36 | 1009.4 |
| 20260509221451 | 28 | 279 | 1.6 | 1.6 | 0.00 | 0.03 | 0.03 | 39 | 1009.6 |
| 20260509220948 | 28 | 316 | 1.6 | 1.6 | 0.00 | 0.03 | 0.03 | 33 | 1009.5 |
| 20260509220444 | 28 | 318 | 1.6 | 1.6 | 0.00 | 0.03 | 0.03 | 35 | 1009.5 |
| 20260509215940 | 28 | 282 | 1.6 | 1.6 | 0.00 | 0.03 | 0.03 | 36 | 1009.7 |
| 20260509215435 | 28 | 332 | 1.6 | 1.6 | 0.00 | 0.03 | 0.03 | 31 | 1009.6 |
| 20260509214933 | 28 | 269 | 4.8 | 4.8 | 0.00 | 0.03 | 0.03 | 33 | 1009.8 |
| 20260509214430 | 28 | 298 | 0.0 | 1.6 | 0.00 | 0.03 | 0.03 | 38 | 1009.5 |
| 20260509213927 | 28 | 299 | 1.6 | 1.6 | 0.00 | 0.03 | 0.03 | 36 | 1009.6 |
| 20260509213422 | 28 | 295 | 3.2 | 3.2 | 0.00 | 0.03 | 0.03 | 32 | 1009.8 |
| 20260509212920 | 28 | 299 | 3.2 | 3.2 | 0.00 | 0.03 | 0.03 | 34 | 1009.8 |
| 20260509212418 | 28 | 307 | 3.2 | 3.2 | 0.00 | 0.03 | 0.03 | 38 | 1009.6 |
| 20260509211914 | 28 | 316 | 3.2 | 3.2 | 0.00 | 0.03 | 0.03 | 38 | 1009.7 |
| 20260509211409 | 28 | 312 | 3.2 | 3.2 | 0.00 | 0.03 | 0.03 | 33 | 1009.9 |
| 20260509210906 | 28 | 272 | 1.6 | 1.6 | 0.00 | 0.03 | 0.03 | 35 | 1009.9 |
| 20260509210403 | 28 | 266 | 3.2 | 4.8 | 0.00 | 0.03 | 0.03 | 36 | 1010.1 |
| 20260509205858 | 28 | 313 | 3.2 | 3.2 | 0.00 | 0.03 | 0.03 | 34 | 1010.1 |
| 20260509205353 | 28 | 255 | 1.6 | 3.2 | 0.00 | 0.03 | 0.03 | 37 | 1010.2 |
| 20260509204849 | 28 | 265 | 3.2 | 3.2 | 0.00 | 0.03 | 0.03 | 36 | 1010.2 |
| 20260509204345 | 27 | 262 | 1.6 | 3.2 | 0.00 | 0.03 | 0.03 | 39 | 1010.1 |
| 20260509203841 | 27 | 312 | 1.6 | 1.6 | 0.00 | 0.03 | 0.03 | 39 | 1010.2 |
| 20260509203333 | 28 | 292 | 3.2 | 3.2 | 0.00 | 0.03 | 0.03 | 39 | 1010.2 |
| 20260509202830 | 28 | 263 | 1.6 | 1.6 | 0.00 | 0.03 | 0.03 | 41 | 1010.3 |
| 20260509202326 | 27 | 331 | 1.6 | 1.6 | 0.00 | 0.03 | 0.03 | 41 | 1010.3 |
| 20260509201825 | 28 | 260 | 1.6 | 3.2 | 0.00 | 0.03 | 0.03 | 39 | 1010.5 |
| 20260509201322 | 28 | 252 | 3.2 | 3.2 | 0.00 | 0.03 | 0.03 | 43 | 1010.5 |
| 20260509200819 | 28 | 241 | 3.2 | 3.2 | 0.00 | 0.03 | 0.03 | 39 | 1010.5 |
| 20260509200314 | 27 | 253 | 3.2 | 3.2 | 0.00 | 0.03 | 0.03 | 40 | 1010.4 |
| 20260509195811 | 27 | 326 | 3.2 | 3.2 | 0.00 | 0.03 | 0.03 | 41 | 1010.4 |
| 20260509195307 | 27 | 321 | 1.6 | 3.2 | 0.00 | 0.03 | 0.03 | 43 | 1010.5 |
| 20260509194805 | 27 | 249 | 3.2 | 4.8 | 0.00 | 0.03 | 0.03 | 39 | 1010.5 |
| 20260509194302 | 27 | 300 | 1.6 | 1.6 | 0.00 | 0.03 | 0.03 | 44 | 1010.6 |
| 20260509193758 | 27 | 303 | 3.2 | 4.8 | 0.00 | 0.03 | 0.03 | 41 | 1010.6 |
| 20260509193252 | 27 | 293 | 3.2 | 3.2 | 0.00 | 0.03 | 0.03 | 43 | 1010.6 |
| 20260509192749 | 27 | 255 | 4.8 | 8.0 | 0.00 | 0.03 | 0.03 | 41 | 1010.4 |
| 20260509192244 | 27 | 274 | 4.8 | 4.8 | 0.00 | 0.03 | 0.03 | 45 | 1010.8 |
| 20260509191740 | 26 | 276 | 1.6 | 3.2 | 0.00 | 0.03 | 0.03 | 45 | 1010.6 |
| 20260509191236 | 26 | 284 | 4.8 | 4.8 | 0.00 | 0.03 | 0.03 | 47 | 1010.6 |